Theta_e
350 350 350 350 350 351 350 348 349 351 350 350 350 350 349 349 351 350 349 347 347 347 346 348 348 349 349 348 348 348 348 348 343 338 339 339 339 338 337 336 336 336 338 340 341 342 343 344 344 345 345 345 345 346 346 346 346 345 344 343 343 344 343 341 338 339 341 341 341 339 340 341 341 343 343 344 344 344 345 345 345 344 343 343 343
350 348 349 349 348 349 349 348 350 351 350 350 350 350 350 349 350 350 352 349 347 347 346 347 348 347 349 349 348 348 348 348 346 340 339 340 340 340 339 338 337 336 336 337 339 340 341 342 343 343 344 345 346 346 345 345 345 344 344 344 343 343 343 340 338 339 341 342 341 340 341 342 343 344 343 343 344 345 346 345 344 343 343 344 343
349 348 348 347 347 348 349 350 350 350 351 351 350 350 351 351 350 351 352 350 347 348 346 346 346 345 348 349 348 349 348 348 348 344 340 340 340 341 341 340 339 338 337 336 336 336 337 338 339 340 341 341 343 344 343 343 343 343 344 344 344 343 341 339 337 339 341 343 343 342 343 344 345 344 344 344 344 345 345 344 344 343 343 343 342
349 348 349 348 348 349 350 351 350 350 352 351 352 352 352 351 351 352 351 349 347 348 346 345 344 344 346 348 348 348 348 348 349 348 344 340 339 340 341 341 341 340 339 339 337 336 335 335 336 337 337 338 340 341 341 340 340 341 342 341 340 342 342 341 341 342 344 345 344 344 345 345 345 345 345 346 345 345 344 344 344 342 343 342 341
351 351 351 350 350 349 349 351 352 352 352 352 352 352 352 351 351 353 352 349 349 348 347 345 344 344 345 347 347 347 349 349 349 349 348 343 339 339 340 341 341 341 341 341 341 340 339 338 337 336 337 337 338 338 338 337 337 338 340 339 339 342 344 345 345 345 346 346 345 346 346 345 345 346 346 346 346 345 344 344 343 343 342 341 341
353 353 353 352 351 351 351 352 353 353 352 352 352 351 351 351 350 352 352 350 349 348 348 346 343 343 344 345 347 347 348 348 349 349 348 346 343 341 340 339 340 341 341 342 342 343 342 341 340 339 339 338 338 338 339 339 340 341 341 342 343 344 345 346 346 346 345 345 346 346 346 345 346 346 347 346 346 345 344 344 344 344 342 341 340
353 353 353 354 352 352 352 353 354 353 351 350 351 350 349 349 349 350 351 349 348 347 347 345 343 343 344 345 345 346 347 348 348 349 348 347 346 345 344 341 340 341 341 340 341 342 342 342 341 341 342 341 340 341 341 341 342 343 344 344 345 345 345 345 345 346 346 346 346 346 346 346 347 347 347 346 346 345 344 344 343 343 342 342 339
354 353 353 354 353 352 353 353 353 352 351 350 350 351 350 349 350 350 350 349 347 346 346 343 343 342 343 344 345 346 347 346 347 348 348 347 346 347 348 346 345 345 344 343 342 342 341 341 341 341 342 342 341 342 342 342 342 343 344 344 344 346 346 345 345 345 346 346 347 346 346 347 347 347 346 345 345 345 345 344 344 343 341 341 336
355 354 354 353 353 354 353 351 352 351 350 350 350 352 353 351 351 350 349 349 347 346 344 343 343 343 343 344 346 346 347 347 347 348 347 346 347 347 348 348 348 349 348 347 346 345 343 342 341 341 342 342 342 342 342 342 342 343 343 343 344 346 347 346 345 345 345 346 346 347 347 346 346 346 346 346 345 345 345 344 343 342 340 340 332
354 353 353 353 353 354 354 353 352 350 350 350 351 353 354 353 352 351 351 350 349 348 346 344 344 343 343 344 346 346 346 347 346 346 346 346 348 347 347 348 347 347 349 349 349 348 347 345 344 341 339 340 341 341 341 341 342 342 343 342 343 345 347 346 346 346 345 346 346 346 346 346 346 346 346 345 345 345 345 344 343 341 339 336 326
353 353 353 352 353 354 355 355 352 350 351 350 350 352 353 354 353 351 351 350 347 347 346 344 344 344 344 344 346 346 347 347 347 347 345 346 347 347 347 348 347 347 348 348 349 349 349 348 346 344 341 340 341 341 342 341 341 341 341 342 342 345 347 347 346 347 346 346 346 345 345 346 346 346 346 346 345 345 345 344 343 341 337 331 320
352 353 353 352 353 354 354 354 353 352 352 350 349 351 353 354 353 350 349 348 345 345 345 344 345 344 345 345 345 346 346 347 348 348 346 344 345 347 347 348 348 348 347 347 349 349 350 349 347 347 346 345 346 346 344 341 339 339 339 340 340 343 346 346 346 346 345 345 345 344 344 345 345 345 345 345 344 344 344 343 342 339 333 325 318
350 352 354 353 352 353 352 352 353 353 352 350 351 351 352 353 354 351 350 349 346 345 345 344 343 343 345 345 345 345 345 347 348 347 346 345 344 345 346 347 348 348 347 346 348 348 349 348 347 346 346 346 346 346 344 343 341 339 338 338 338 339 341 343 345 345 345 345 344 343 343 344 344 344 344 343 343 344 343 342 341 336 328 319 316
348 350 354 354 353 354 353 352 353 355 354 352 352 351 352 353 353 352 350 351 348 346 344 344 343 343 344 346 346 345 344 346 347 347 346 346 344 344 344 345 346 346 347 347 347 347 347 347 346 347 347 347 347 347 347 346 345 342 340 339 339 338 338 339 341 342 343 343 340 339 340 342 343 343 343 342 342 342 341 340 337 331 322 317 316
347 348 353 356 355 356 355 354 355 355 354 354 353 352 353 353 353 352 350 351 349 346 344 346 347 344 345 351 351 349 349 347 346 347 346 345 345 344 343 344 345 345 345 346 346 345 345 345 347 347 347 347 347 348 348 347 347 346 345 343 342 340 337 337 337 338 338 335 332 330 334 338 339 340 341 342 342 342 340 338 333 325 319 316 316
349 350 354 355 356 358 356 355 356 355 352 354 355 354 355 354 354 353 351 351 351 348 345 346 347 344 346 354 354 355 359 352 345 345 345 345 345 344 344 343 345 345 344 345 345 345 345 346 347 346 347 347 345 345 347 347 348 348 348 347 345 339 333 333 334 333 332 327 324 323 326 330 332 334 335 337 339 339 339 334 327 320 317 316 315
351 353 356 356 356 358 358 355 354 352 352 354 354 354 356 356 355 353 350 351 352 349 346 344 344 346 348 354 357 359 361 353 348 347 343 344 345 344 343 343 344 345 343 343 344 345 345 346 346 346 346 345 342 343 344 345 347 348 348 348 345 339 332 329 328 326 325 323 321 320 322 324 325 325 324 325 329 331 331 327 321 318 316 316 315
353 354 357 357 357 358 358 357 354 353 355 355 354 354 356 356 355 354 351 352 352 351 349 345 342 343 346 350 350 352 353 350 354 354 346 343 345 345 345 343 343 344 344 344 345 346 345 344 345 345 346 345 344 344 344 345 347 348 348 348 346 340 331 326 325 323 322 322 321 321 321 322 322 321 319 320 321 322 323 322 319 317 316 316 316
356 356 356 356 357 357 358 359 356 355 357 357 356 356 357 356 355 354 353 352 352 353 352 347 343 341 344 346 342 344 347 347 353 358 356 353 347 343 344 343 342 343 344 345 345 344 343 342 344 345 345 346 346 346 345 346 347 347 347 347 348 344 334 326 324 324 324 324 323 322 322 321 321 321 320 319 319 319 320 320 318 316 316 316 315
357 356 356 355 357 358 358 359 359 357 357 355 356 357 356 357 356 356 356 353 352 354 353 349 347 345 345 346 344 343 342 343 345 351 358 364 358 348 345 344 343 343 344 345 345 344 343 343 344 345 345 346 346 346 346 347 347 347 347 347 348 348 342 334 329 327 326 325 325 324 324 322 321 320 320 320 319 318 319 318 317 317 316 316 317
357 356 356 356 357 358 359 358 358 359 358 354 355 356 355 356 357 356 356 355 353 355 353 351 352 352 348 344 345 346 343 342 342 344 350 359 363 355 347 344 345 343 345 345 344 344 344 344 344 344 344 344 344 345 346 347 347 347 347 348 348 349 347 344 340 336 331 328 327 327 327 325 323 322 321 321 320 319 319 318 317 317 317 317 318
357 357 356 356 357 358 359 359 357 357 359 356 355 355 355 356 356 356 357 358 356 356 355 354 354 354 351 344 343 346 346 345 344 346 345 347 356 355 346 343 344 344 344 343 342 343 343 344 344 344 344 344 343 344 345 346 346 347 347 348 348 347 347 346 345 343 337 332 330 329 329 328 327 326 324 323 322 321 320 320 319 318 317 317 318
355 357 355 355 357 357 358 359 357 356 358 358 357 356 355 355 355 356 359 360 359 358 357 357 355 354 352 349 343 342 345 347 344 344 343 345 353 354 346 344 345 343 343 343 342 343 343 343 343 342 343 343 343 343 344 346 346 347 348 347 347 347 346 346 345 345 342 338 333 331 330 330 330 329 328 327 326 324 323 322 321 319 318 318 319
353 355 355 355 357 357 359 359 358 357 358 357 356 356 356 354 354 355 358 359 359 358 357 358 357 354 352 352 348 344 345 346 344 343 342 342 348 348 342 344 348 346 345 344 343 344 343 343 342 342 342 342 343 343 343 345 346 346 347 347 346 346 346 346 346 346 345 342 338 334 332 331 331 331 331 331 331 330 328 327 325 323 322 321 320
353 354 354 355 355 357 358 359 359 357 358 357 356 355 357 356 354 355 356 356 358 359 357 357 358 357 355 353 353 352 351 348 345 345 344 344 345 344 342 348 350 347 347 347 345 345 344 343 344 343 343 342 342 343 343 344 345 345 345 346 345 346 346 346 346 346 345 345 342 339 336 334 333 333 332 333 333 333 333 332 331 329 328 326 324
354 354 354 354 354 356 356 356 359 358 357 357 357 356 356 357 355 355 356 356 357 358 358 357 358 358 357 355 354 354 353 351 348 345 344 345 346 345 347 351 349 345 349 351 349 347 345 346 346 344 343 344 343 344 344 345 345 345 346 347 346 346 346 346 346 346 344 344 343 342 341 339 338 336 335 335 334 334 334 334 333 333 333 331 329
352 353 353 354 354 356 355 354 356 358 358 358 357 357 356 356 356 356 356 357 357 358 358 358 358 358 358 356 356 354 353 353 352 349 347 347 347 347 350 354 356 354 353 351 349 349 350 349 348 346 343 344 344 344 345 344 344 345 345 345 345 344 344 344 343 343 342 342 341 342 342 341 341 340 340 339 338 337 336 335 335 334 334 334 332
350 349 351 354 354 354 355 354 353 356 358 359 358 358 357 356 356 356 357 358 357 357 357 357 358 359 358 357 356 355 354 354 355 354 353 351 351 350 349 352 358 362 363 361 356 352 349 348 349 349 346 344 343 343 344 345 345 346 345 344 344 343 343 343 342 343 342 342 343 343 343 344 344 345 345 344 343 343 342 340 340 338 336 335 334
347 347 349 353 354 353 354 354 353 354 356 358 358 358 358 357 355 354 355 356 356 357 357 356 357 357 357 357 357 356 353 353 354 354 352 352 351 351 351 350 354 361 367 370 364 354 346 346 350 353 351 346 344 343 344 347 347 348 348 346 346 346 346 347 346 346 347 347 347 347 348 348 348 349 350 349 349 348 347 346 346 344 343 340 339
347 346 348 351 353 353 353 354 354 354 355 357 358 358 359 359 357 355 353 352 355 358 357 356 357 357 357 357 357 356 354 353 353 353 352 351 351 351 353 353 354 357 359 363 365 358 350 349 350 351 351 348 348 349 348 350 351 350 350 348 347 348 348 348 348 348 349 349 349 349 350 351 352 353 354 354 354 353 352 351 351 349 348 346 344
347 346 346 348 351 353 353 353 354 354 355 357 359 358 358 360 359 357 355 354 355 357 357 357 357 357 357 357 356 356 356 355 355 355 355 354 354 355 355 354 355 357 354 357 362 359 353 353 351 347 349 348 350 352 353 352 352 352 351 351 351 350 348 349 349 349 349 350 351 352 353 354 355 355 356 355 355 354 355 354 353 353 352 350 349
347 349 348 347 348 351 351 352 354 355 355 357 359 359 358 359 359 357 356 357 356 355 356 357 358 357 357 357 356 355 355 356 355 355 355 354 356 356 356 356 355 356 356 357 359 358 354 355 353 350 351 352 352 353 354 354 354 355 356 355 356 354 353 353 353 354 354 354 356 357 357 358 358 358 357 356 357 356 356 355 354 355 354 353 352
346 348 350 350 348 349 349 351 353 354 356 357 358 359 359 359 359 357 356 358 357 355 355 356 357 358 359 357 356 354 354 355 354 355 355 354 355 355 355 355 355 356 357 357 358 357 356 357 356 355 355 356 356 355 355 356 356 356 356 355 354 355 356 357 357 357 358 358 359 359 359 358 358 358 357 357 357 357 356 356 356 356 356 355 354
348 346 347 349 349 350 350 351 352 353 356 357 358 359 359 359 360 358 357 358 358 357 356 356 355 357 359 359 358 356 354 354 355 357 357 355 355 355 355 355 355 355 356 357 358 358 358 357 357 357 357 357 358 356 356 356 356 355 355 354 354 355 356 357 357 357 358 357 357 357 358 358 358 358 357 358 359 359 359 358 358 358 357 357 356
350 349 346 345 348 351 351 351 352 353 355 357 358 358 359 359 359 358 357 357 358 358 358 356 355 355 356 357 358 357 355 355 356 357 358 357 356 356 356 356 356 356 356 357 358 358 359 359 358 359 359 358 358 357 356 357 357 356 356 357 358 358 358 358 358 358 356 356 356 356 357 358 358 359 360 360 361 361 361 360 360 360 359 359 358
347 350 349 346 346 350 353 352 353 353 354 356 358 357 357 357 358 358 357 357 356 358 358 357 356 356 355 355 355 356 357 356 357 357 358 357 357 356 356 356 356 356 356 356 357 358 359 359 359 359 357 358 358 358 359 359 359 358 359 359 360 360 359 359 358 358 357 357 357 357 358 359 360 361 362 362 362 362 362 361 361 362 361 360 360
347 349 351 349 348 350 353 353 353 353 354 355 357 357 356 356 357 358 357 356 356 355 356 355 357 357 357 356 354 354 357 357 357 358 358 358 358 356 356 357 356 355 355 356 356 356 358 358 358 358 358 360 360 360 360 360 360 361 360 360 360 359 359 359 358 358 358 358 360 360 361 361 362 363 363 363 363 361 359 359 360 359 359 358 358
349 350 351 351 350 350 353 354 354 355 355 356 357 356 356 356 357 357 357 357 357 357 355 354 356 356 358 359 357 357 357 358 357 357 357 357 357 356 356 357 356 356 355 356 357 359 359 360 360 361 362 361 361 361 361 361 361 360 360 359 358 358 359 359 360 360 360 361 362 362 363 363 363 363 362 361 359 357 357 357 357 356 357 357 358
351 352 352 352 352 351 353 354 355 356 356 356 356 356 355 355 356 358 358 357 357 356 357 357 357 356 357 358 359 359 359 359 358 357 357 357 356 356 356 357 357 358 357 358 358 360 360 361 362 362 362 362 362 362 361 360 359 359 359 360 359 360 361 361 362 361 361 360 361 361 361 362 363 361 359 357 356 356 356 355 355 356 357 357 354
352 353 353 354 353 353 353 354 355 356 357 357 356 355 354 354 356 357 357 357 356 355 356 357 357 357 357 357 358 358 359 359 359 358 358 357 357 357 356 357 357 357 358 359 360 360 361 362 362 362 363 363 362 362 361 359 359 360 361 361 361 362 362 361 359 358 358 360 361 361 361 361 360 357 356 356 355 354 353 354 355 356 354 350 347
352 354 354 355 355 354 354 355 355 356 358 358 357 356 355 354 354 355 356 357 357 356 355 356 356 356 356 357 357 358 358 358 358 358 358 357 358 358 357 357 357 357 358 358 360 360 361 362 363 363 363 363 361 362 360 360 360 361 360 360 360 360 359 358 357 356 358 361 361 361 360 359 358 356 356 356 354 353 354 354 354 352 348 345 344
354 354 354 356 356 356 356 357 357 358 358 358 358 356 355 354 354 355 356 356 357 357 357 357 356 356 356 356 357 357 358 358 357 357 357 356 356 356 355 355 356 357 358 359 360 361 362 364 364 363 363 362 361 361 361 361 361 359 357 357 358 358 359 359 359 359 360 361 362 362 359 357 357 357 357 355 354 353 353 353 351 348 344 344 344
356 355 355 356 356 356 356 357 357 358 359 359 359 357 356 355 354 355 355 357 357 357 358 359 358 358 357 356 356 357 357 358 358 357 357 356 355 355 354 353 353 355 358 359 360 361 362 363 362 360 359 358 357 358 359 359 356 353 353 355 356 358 360 361 362 362 362 361 362 361 359 356 356 357 356 353 353 353 351 348 345 343 343 344 344
357 356 356 357 357 357 357 357 358 358 358 359 359 359 357 356 355 355 355 357 358 358 357 357 358 359 358 357 356 357 357 355 355 355 355 355 356 355 355 354 354 355 356 357 358 359 359 359 357 355 354 353 353 352 352 351 349 348 351 354 357 359 360 362 364 362 361 360 360 360 359 356 355 354 353 352 352 350 345 340 340 342 344 343 340
358 357 358 357 357 358 358 358 358 359 359 359 359 359 358 357 356 355 355 356 357 357 357 357 358 357 358 357 357 357 357 356 354 354 353 352 353 353 354 355 355 356 356 356 356 355 355 356 355 354 352 352 351 349 346 346 347 349 352 356 359 361 362 363 363 361 360 360 360 361 360 355 352 351 351 350 348 342 337 337 341 343 342 338 337
359 358 359 358 357 358 358 358 358 359 360 359 359 360 360 360 358 356 356 356 356 356 357 357 357 357 356 357 357 357 356 356 356 355 353 351 351 351 352 352 353 354 355 356 355 356 356 355 356 355 351 350 351 349 350 350 350 352 355 357 360 362 363 362 360 359 360 359 359 358 356 352 350 348 347 345 341 335 335 340 343 340 337 336 337
359 359 359 358 357 358 359 359 359 359 360 360 360 361 360 360 360 358 358 358 358 356 355 356 357 357 357 357 357 357 356 355 355 353 352 351 351 352 352 352 353 353 354 355 357 357 356 355 355 355 352 352 354 355 355 356 355 355 356 358 361 363 362 360 359 359 360 359 357 353 350 349 347 344 342 339 334 333 338 341 340 336 335 336 336
359 359 359 359 358 357 359 359 360 360 361 361 361 361 361 361 361 361 360 359 359 359 357 356 356 357 357 357 357 357 356 355 355 353 352 351 351 353 354 354 355 355 356 357 356 357 358 359 360 360 360 360 358 358 359 358 358 357 358 360 362 361 359 358 359 361 361 358 355 351 347 346 344 341 338 336 334 335 339 341 337 333 334 336 335
359 359 359 359 359 358 358 359 361 361 361 361 362 362 361 361 361 362 361 361 361 360 359 358 357 358 357 358 357 357 356 356 356 355 355 354 353 353 355 357 357 358 357 357 357 359 363 364 362 361 360 358 358 360 360 359 359 359 358 359 360 359 358 358 359 360 361 358 353 349 345 344 341 338 336 337 337 337 339 339 334 332 334 335 334
358 358 359 359 359 358 358 358 359 360 361 361 361 361 362 361 361 361 361 361 361 360 359 359 359 359 358 359 359 359 359 357 356 356 357 356 355 354 355 357 358 360 359 358 361 364 364 360 358 359 358 357 359 360 360 359 359 358 358 359 360 359 357 358 360 360 359 355 349 345 343 341 338 337 338 339 338 338 340 337 331 331 334 335 334
357 358 359 359 358 359 358 357 357 358 359 360 361 361 360 360 360 360 360 360 360 361 360 359 358 359 359 359 360 361 361 361 359 359 359 358 358 356 357 357 359 359 358 358 361 361 360 358 359 361 361 361 360 359 360 360 360 360 360 361 362 360 358 359 361 357 352 349 346 343 341 339 339 340 339 338 339 339 337 333 330 332 334 334 334
Wind_Speed
12 11 10 11 9 8 8 7 8 8 8 7 6 6 6 5 4 2 2 2 4 6 7 10 9 9 11 12 12 14 12 9 10 11 11 11 12 11 10 10 10 10 10 10 10 9 9 9 8 7 6 6 6 5 4 4 4 4 4 4 3 2 2 1 1 1 0 1 2 2 3 3 3 4 5 6 6 7 7 7 8 8 9 8 8
11 10 11 11 10 9 8 8 8 7 8 8 7 6 5 5 4 3 1 1 3 5 5 9 11 8 10 11 10 12 11 9 9 9 11 11 11 11 10 10 10 9 10 9 9 8 8 8 8 7 7 6 6 5 5 5 5 4 4 4 3 3 3 2 2 1 1 2 3 4 4 4 4 5 6 6 7 7 8 8 8 8 8 8 7
11 12 12 11 11 10 9 9 8 8 7 7 6 6 6 5 5 3 2 3 4 5 5 7 10 8 10 11 9 11 12 9 8 8 10 10 10 11 11 10 9 8 8 8 8 8 7 7 7 7 6 6 6 6 5 5 5 5 4 4 4 4 4 3 2 2 2 3 4 4 5 5 5 6 6 7 7 7 8 7 7 8 7 7 7
12 13 13 12 11 10 10 10 10 9 8 7 7 6 6 6 5 4 3 5 6 6 5 5 8 8 10 12 10 10 12 11 9 8 9 9 10 10 10 10 9 8 7 7 7 7 7 6 6 6 6 6 6 6 5 5 5 5 5 5 5 5 4 3 3 3 3 4 5 5 5 5 6 6 6 7 7 7 8 7 7 7 7 7 7
14 13 12 12 11 9 10 11 11 10 8 7 6 5 5 6 6 5 4 6 6 7 6 4 6 8 10 11 9 7 11 13 11 9 8 8 9 8 9 9 9 9 8 7 7 7 7 6 6 6 6 6 6 6 5 5 5 5 5 5 5 5 4 4 4 4 5 5 6 6 6 6 7 7 7 7 7 7 7 7 7 7 7 7 6
15 15 13 12 11 9 10 11 10 9 7 6 6 6 5 6 7 5 5 6 7 7 5 4 5 8 11 10 7 6 10 14 13 11 8 7 7 7 8 8 8 9 8 8 7 7 7 7 7 7 7 7 6 6 6 6 6 6 6 6 6 6 5 5 6 6 6 7 7 8 7 7 7 7 7 7 7 7 7 7 7 7 6 6 5
15 15 14 11 10 9 10 10 9 8 7 7 7 7 6 7 7 5 6 6 7 7 4 4 5 7 10 9 7 8 9 12 15 13 8 7 6 6 7 7 7 7 7 7 7 8 8 7 8 8 8 8 8 7 7 7 7 7 8 8 7 7 7 7 7 7 7 7 8 8 8 7 7 7 7 7 7 7 7 7 6 6 6 5 4
14 14 14 12 10 10 9 9 9 8 8 8 9 8 6 6 6 6 7 6 7 6 4 6 6 7 8 8 7 9 9 9 13 13 9 8 6 5 6 6 6 5 5 6 6 7 7 7 8 8 8 8 8 8 8 8 8 9 9 9 9 8 8 8 7 7 7 7 8 7 7 7 7 7 7 7 7 7 7 6 5 5 5 4 3
15 14 13 12 11 10 10 8 8 7 8 10 10 8 6 5 6 7 7 6 8 7 6 8 7 7 8 7 6 7 8 7 10 12 11 8 8 7 6 5 4 4 5 5 6 6 7 7 7 7 8 8 9 9 8 8 8 9 9 9 9 8 8 8 8 7 7 7 8 8 7 7 8 8 7 7 7 7 7 6 6 5 5 4 3
15 14 12 12 11 10 10 8 7 7 9 10 9 9 7 5 5 6 5 5 5 6 8 8 8 10 10 9 6 6 7 7 6 8 10 9 10 9 6 5 3 3 3 4 6 7 6 6 6 7 8 8 9 9 8 8 8 8 8 8 9 9 8 8 8 8 8 8 8 8 8 8 8 8 7 8 8 7 7 7 6 6 5 4 3
14 13 11 11 10 10 9 7 7 7 8 9 9 10 9 6 5 5 4 3 2 6 9 6 7 12 11 8 7 7 7 7 6 6 8 10 9 10 8 7 6 5 4 4 5 6 6 5 4 6 7 7 7 7 8 8 8 8 8 8 9 9 9 8 8 8 8 9 9 9 9 8 8 8 8 8 8 8 8 7 6 6 5 4 3
14 13 11 10 10 10 10 8 7 7 6 8 8 9 9 7 6 5 5 4 4 6 7 7 11 12 11 8 6 5 5 7 7 6 8 9 9 11 11 8 9 8 5 5 6 6 5 4 3 4 5 5 5 6 6 6 7 8 8 9 9 9 9 9 9 9 9 9 9 10 10 9 9 9 8 8 9 9 8 7 7 6 6 5 4
13 12 11 10 11 11 10 9 8 7 6 7 8 8 8 7 7 6 6 5 4 5 6 7 8 8 8 9 7 6 5 6 7 6 7 8 7 10 12 11 11 11 7 7 8 7 6 4 3 4 5 4 5 5 5 5 5 6 7 8 8 9 9 9 10 10 9 10 10 10 10 10 10 9 9 9 9 9 8 8 7 7 6 5 5
13 12 10 10 11 11 10 8 7 7 7 8 8 7 7 8 7 6 5 4 3 6 7 5 5 6 7 6 5 6 5 5 8 7 7 9 6 4 10 13 12 11 10 8 9 8 7 6 4 5 5 4 4 5 5 5 5 5 5 6 7 8 9 10 10 10 10 10 11 11 10 10 10 10 10 10 9 9 9 8 8 7 6 6 6
13 12 11 10 10 10 9 8 7 7 8 9 8 8 8 8 7 5 5 4 4 7 9 4 3 7 7 4 3 3 2 3 6 7 7 10 8 4 8 12 12 12 13 10 8 7 7 8 7 6 6 5 5 6 7 6 6 5 5 6 7 8 9 10 10 10 10 11 11 11 11 11 11 11 10 10 10 10 10 9 8 7 7 7 8
14 13 11 9 8 8 8 7 7 6 7 7 7 8 8 7 7 6 5 4 3 5 7 4 4 7 5 2 2 3 0 3 5 7 7 9 11 9 8 10 12 13 13 11 9 8 9 9 9 7 7 8 8 7 7 7 7 7 7 8 9 9 9 9 10 10 10 11 11 11 11 11 11 11 11 11 10 10 10 9 8 8 8 8 9
15 13 11 9 9 8 8 8 7 6 6 6 6 6 8 7 6 6 6 5 4 5 5 5 5 5 2 1 1 2 1 3 3 4 6 7 9 11 10 11 13 13 11 11 11 12 12 10 10 10 9 8 8 8 8 8 7 8 9 9 9 9 8 9 9 10 10 11 11 11 11 11 12 12 11 11 11 11 11 10 10 9 9 10 10
14 13 12 11 11 10 9 9 7 7 7 5 5 5 7 7 6 6 6 5 6 4 4 6 5 3 4 3 2 2 3 2 2 1 4 5 6 9 13 13 14 16 13 11 13 15 13 12 11 11 10 8 7 7 7 7 7 9 10 9 8 8 9 9 10 10 11 11 11 11 12 12 12 12 11 11 11 11 11 11 11 11 11 11 12
14 13 13 13 12 12 10 9 8 7 7 6 5 5 7 7 6 6 5 6 7 4 4 7 5 3 5 4 1 3 5 3 3 1 1 3 5 6 15 16 14 17 16 13 14 15 14 14 13 11 10 8 7 6 6 6 7 8 9 9 9 9 9 9 10 11 11 11 12 12 12 13 13 13 12 12 12 12 12 13 13 13 13 13 13
16 14 15 14 13 13 11 10 9 7 7 6 6 6 6 7 8 7 5 5 7 5 4 6 4 3 4 4 3 3 3 3 4 4 2 1 4 3 10 14 14 18 18 14 13 15 15 15 14 12 11 9 9 8 7 7 7 8 9 10 10 10 10 9 10 11 11 12 12 13 13 14 14 14 14 13 13 13 14 14 14 14 14 15 15
17 16 16 16 14 13 13 12 11 10 8 7 7 8 7 8 9 7 5 6 7 5 4 5 2 2 3 4 3 2 3 4 4 4 3 2 2 4 6 7 11 17 17 13 11 12 14 15 13 11 10 10 11 11 9 8 8 8 9 10 12 12 12 11 11 12 12 13 13 14 15 15 15 15 15 15 15 15 15 16 16 16 16 17 18
18 17 17 17 15 13 13 13 13 12 10 8 8 9 9 9 8 7 6 6 7 5 4 4 1 1 2 3 3 3 3 3 4 5 4 2 2 4 6 3 5 10 9 8 6 7 10 12 12 12 10 11 11 11 10 10 10 9 9 11 12 13 13 13 14 14 14 14 14 15 16 16 16 16 17 17 17 17 17 17 17 18 18 19 19
19 18 17 17 15 14 12 12 13 12 12 10 9 9 10 9 6 6 8 6 7 7 6 4 2 2 3 2 3 6 4 2 3 5 5 2 2 3 6 7 2 4 5 7 5 4 7 9 10 11 11 11 11 11 10 10 11 10 10 11 13 14 15 16 16 16 16 16 16 16 17 18 18 17 18 18 18 18 19 19 19 19 20 21 21
20 19 18 17 16 15 13 12 12 12 12 11 9 8 9 10 8 8 9 8 7 8 8 7 5 5 5 4 5 7 7 5 3 5 6 4 3 3 4 6 4 4 2 7 6 4 7 9 10 10 11 11 11 10 11 11 10 10 11 13 15 16 17 18 18 18 18 18 18 18 19 19 19 20 20 20 20 20 20 21 21 21 22 22 23
21 21 21 19 17 17 16 15 13 12 12 11 11 11 8 8 11 11 9 7 7 7 8 8 7 6 5 6 7 7 8 9 7 7 8 8 5 3 3 3 3 6 7 4 4 5 6 8 11 11 11 12 12 11 10 11 11 11 13 15 16 17 18 19 20 20 20 20 20 21 21 22 22 22 23 23 23 23 23 23 24 23 24 24 24
22 22 22 21 19 19 18 17 16 14 13 12 12 12 9 7 11 12 9 7 7 6 7 7 6 6 6 6 7 6 6 7 8 7 9 10 7 4 2 3 4 5 7 7 6 4 4 6 9 11 11 12 13 12 11 11 12 13 14 16 17 18 19 20 21 22 22 23 23 23 24 25 25 26 27 27 28 28 28 28 27 27 27 27 27
24 22 21 21 21 20 19 18 18 16 15 14 13 13 12 11 11 11 9 8 8 7 7 7 6 6 6 7 7 6 5 3 3 3 4 6 5 3 2 2 3 4 6 6 7 6 6 7 7 7 11 12 11 11 10 10 11 13 15 16 18 19 21 21 22 23 24 24 25 25 26 27 28 28 29 30 31 31 32 32 32 32 31 31 31
25 23 21 22 22 22 21 20 19 19 18 17 17 15 15 15 14 13 12 10 9 8 8 7 8 7 6 6 6 7 7 6 4 3 2 3 4 3 3 3 2 1 4 5 5 4 5 7 7 7 9 12 13 10 10 11 12 14 15 16 18 20 20 21 22 23 24 25 25 26 27 27 29 30 31 32 32 33 34 34 35 35 35 35 35
26 24 23 23 23 23 23 22 20 20 20 19 18 18 16 16 15 15 15 13 11 9 9 9 9 9 8 7 7 8 8 7 7 4 2 3 2 1 1 1 2 2 1 2 3 4 6 8 7 8 9 7 11 11 11 13 15 16 17 18 19 20 21 21 22 24 24 25 26 26 27 28 29 30 31 31 32 32 33 33 35 35 36 37 37
27 25 25 25 25 24 24 24 22 21 21 21 19 18 17 16 15 15 15 14 13 11 11 10 10 9 9 8 7 8 7 5 6 5 4 5 6 4 3 3 3 3 4 3 3 5 7 9 7 7 9 7 6 10 14 16 18 18 19 20 21 21 22 22 23 24 25 26 27 27 28 29 29 29 29 29 29 30 30 31 32 34 35 36 37
27 27 27 27 27 27 26 25 24 22 22 22 21 20 19 18 17 15 14 13 13 13 12 11 11 10 11 9 8 8 7 6 6 6 5 6 8 7 4 4 5 5 5 5 2 5 8 10 11 11 11 10 9 11 15 17 18 19 21 22 23 23 24 24 25 25 26 27 28 29 29 29 29 29 29 29 30 30 31 31 32 34 35 36 36
29 28 28 28 29 29 28 27 26 24 23 23 23 21 20 20 19 18 16 14 14 15 14 13 12 11 11 11 11 10 9 9 9 9 8 6 7 8 6 5 6 6 8 7 6 9 13 14 16 16 14 14 14 14 15 16 17 18 20 21 22 23 24 24 25 25 25 25 26 27 28 28 29 29 30 31 32 32 33 33 34 34 35 36 36
32 30 28 29 30 30 30 29 28 27 25 25 25 23 22 22 22 20 18 17 16 15 15 15 14 13 12 12 12 12 11 11 11 10 10 9 8 9 10 10 10 9 10 11 11 13 17 16 17 18 17 17 17 17 16 17 18 18 19 20 21 22 22 22 22 23 23 24 25 26 27 28 28 29 31 32 33 33 33 33 33 34 34 35 35
33 33 32 30 30 31 32 31 31 29 28 27 26 26 24 24 24 23 21 19 18 16 16 17 16 15 15 14 13 13 12 12 12 11 11 10 10 11 13 14 15 13 12 14 14 14 16 18 18 18 18 17 18 19 19 19 20 20 20 20 20 20 20 20 21 22 22 22 24 25 25 26 27 29 30 31 32 32 31 31 32 33 33 33 33
33 34 34 33 31 32 33 33 32 31 30 28 28 28 27 26 25 25 24 23 21 19 19 18 17 16 16 16 14 13 13 13 13 13 12 12 12 13 14 13 13 13 13 14 16 16 16 19 19 17 17 17 19 21 21 21 21 22 22 20 19 18 19 20 21 22 23 23 23 24 24 24 25 27 30 31 31 30 30 30 30 30 30 29 29
35 34 34 35 34 32 34 34 33 32 31 30 30 30 30 29 27 26 26 25 24 22 21 20 18 17 17 18 17 15 14 14 14 14 14 14 13 14 14 13 12 12 12 13 15 16 16 18 18 19 19 20 21 22 22 22 22 23 23 22 21 20 21 21 23 24 25 24 24 24 23 24 25 27 29 29 29 29 30 30 30 29 28 27 27
36 36 35 35 36 34 35 35 35 33 33 32 32 32 31 30 29 28 27 26 25 24 23 22 20 19 18 19 19 18 17 16 16 16 15 16 15 14 15 15 14 14 13 13 14 15 16 19 21 22 21 21 23 23 22 22 23 22 21 22 22 22 23 24 24 24 23 22 22 22 22 24 25 26 26 27 28 29 30 29 28 27 27 26 27
36 36 37 37 37 37 36 36 36 35 34 33 33 33 33 31 30 29 28 27 26 24 24 23 22 22 21 20 19 18 18 19 19 18 18 17 17 16 16 17 16 15 15 16 16 16 17 19 21 22 22 23 24 23 20 19 20 21 22 24 24 23 23 23 20 19 19 19 20 21 22 23 23 24 26 27 27 27 27 27 26 26 27 28 29
37 36 37 38 39 39 38 37 37 36 35 35 35 35 34 32 31 30 29 28 27 26 25 24 24 23 23 22 21 20 20 20 20 20 20 19 19 18 18 18 17 17 17 17 17 17 18 19 21 22 23 23 22 22 20 19 21 23 23 25 24 20 16 16 17 19 20 20 21 23 23 22 24 25 26 25 24 25 25 26 27 27 28 29 30
39 38 37 38 39 39 39 38 37 36 36 36 36 36 35 34 32 30 29 29 29 28 27 26 25 25 24 24 23 23 22 22 22 22 21 21 20 20 20 19 19 19 19 18 18 18 19 20 21 22 22 21 21 22 22 21 22 21 18 17 18 15 14 17 22 24 23 22 22 23 24 25 26 26 24 24 24 25 25 26 26 26 27 30 31
40 39 38 38 38 39 38 38 37 36 36 36 37 37 36 35 34 31 30 30 29 29 29 28 27 27 26 25 24 24 24 24 24 23 23 23 22 22 22 21 21 21 20 20 20 20 20 20 21 21 20 21 22 22 22 20 18 16 15 14 15 17 19 22 25 24 22 21 21 24 26 27 26 25 23 23 24 24 25 25 24 25 28 31 30
40 40 38 37 38 39 38 38 37 35 35 36 37 38 37 36 35 33 31 31 31 30 29 28 29 28 28 27 26 25 24 24 24 23 23 23 24 25 24 23 22 21 21 21 22 21 20 20 21 20 18 20 22 21 19 18 17 17 19 18 18 20 21 20 20 20 20 18 18 25 27 24 24 24 22 23 24 24 23 23 23 27 29 27 25
40 40 39 37 37 39 38 37 37 36 35 35 36 38 38 37 36 34 32 31 31 31 30 29 29 29 29 28 27 26 25 24 25 25 25 25 26 26 26 25 24 23 22 22 22 21 20 20 21 20 18 21 24 22 20 21 22 22 22 20 19 21 19 14 13 17 20 19 20 26 26 22 21 22 22 22 23 21 21 24 27 28 26 25 26
40 40 39 38 37 38 38 37 37 37 36 36 36 37 38 38 37 35 34 32 31 32 32 31 30 30 29 29 28 27 26 25 25 26 26 26 26 27 27 27 26 25 25 24 23 23 22 22 23 23 23 23 26 26 25 25 24 23 21 20 19 20 18 14 13 17 23 24 23 24 24 20 19 19 20 20 19 21 25 28 27 24 23 26 30
41 40 40 39 37 37 38 37 37 37 37 37 37 37 38 38 39 38 36 34 33 32 32 33 32 31 30 30 29 29 28 27 26 25 25 25 25 25 26 27 27 28 28 27 27 26 27 26 27 28 28 27 26 26 25 23 22 21 19 19 19 19 18 16 16 21 25 25 22 21 21 18 16 16 18 18 20 26 29 25 21 21 25 29 31
40 41 41 40 38 36 37 38 37 36 37 38 38 37 37 38 39 39 39 37 35 33 32 32 33 32 32 31 31 31 30 28 27 26 25 25 26 27 27 27 28 29 28 28 28 28 28 29 30 31 30 27 26 24 21 19 21 21 20 20 19 18 17 17 19 23 24 21 18 16 15 13 13 14 17 21 26 28 23 18 19 23 28 30 29
40 41 41 40 39 37 36 37 38 36 36 38 38 38 37 37 38 40 40 38 35 34 33 31 31 32 33 33 32 32 32 31 30 28 27 25 25 27 29 29 29 29 28 28 26 26 26 27 28 28 26 23 23 22 18 17 20 21 20 19 18 17 18 19 22 24 21 16 13 13 12 12 14 16 18 23 27 22 16 16 21 27 29 28 28
38 39 40 40 40 38 36 36 37 37 36 37 38 38 38 37 38 39 40 39 36 34 33 32 31 31 32 33 33 33 33 33 33 31 30 28 26 25 27 28 28 28 27 27 25 23 23 22 23 23 21 20 20 19 18 18 20 21 20 19 19 21 21 21 20 20 16 12 11 12 12 14 18 21 21 22 22 18 14 17 25 29 27 26 28
36 37 38 38 39 39 37 35 36 37 37 37 38 38 38 38 38 39 40 40 37 36 34 33 32 31 31 31 32 33 34 33 33 31 30 29 28 27 26 26 26 26 27 26 24 20 18 18 20 21 22 22 22 21 20 19 20 21 20 20 22 23 20 15 13 15 14 11 9 11 13 15 20 23 23 21 17 12 13 21 29 28 25 26 29
35 36 37 36 37 39 39 38 36 35 36 37 38 38 38 38 38 40 41 40 39 37 36 34 33 31 30 29 30 31 33 34 33 31 29 28 28 28 28 26 26 26 27 26 23 20 19 18 20 22 23 24 24 24 22 19 18 20 21 22 23 21 17 13 12 13 12 8 7 11 14 15 17 20 22 22 14 8 12 24 30 27 25 28 30
34 33 34 35 35 36 38 39 38 36 34 35 37 38 38 38 38 40 41 40 38 37 36 35 34 33 32 31 29 28 30 30 31 30 29 28 29 30 30 28 27 28 29 27 25 24 22 21 21 20 18 18 19 21 20 16 15 17 18 20 20 21 19 16 12 9 6 3 6 13 14 12 14 16 17 17 11 7 15 26 27 25 26 28 30
Wind_Direction
153 149 149 148 147 152 151 146 142 136 126 119 116 122 130 124 122 126 93 113 163 166 151 152 153 143 154 165 168 172 174 168 157 158 161 157 155 154 155 153 149 151 153 156 156 155 156 156 154 154 154 155 155 155 153 151 149 153 163 170 172 172 190 217 238 260 289 332 323 344 354 351 351 347 343 342 342 344 346 352 356 356 355 357 357
156 149 148 145 145 154 158 150 148 142 119 105 102 113 124 119 121 118 96 161 165 175 179 172 167 147 151 165 169 175 177 173 166 162 165 165 163 163 164 164 159 156 155 155 156 156 155 153 152 152 152 155 157 158 160 164 167 172 180 183 190 200 213 241 265 279 301 313 322 335 342 342 340 335 332 332 336 340 344 350 354 352 350 350 351
161 152 151 146 140 149 156 145 145 146 123 112 115 119 123 121 127 125 151 194 177 173 184 175 168 151 148 160 168 175 178 178 172 166 168 171 171 171 172 173 170 164 161 159 159 159 156 155 154 154 157 159 162 166 170 174 177 183 191 197 206 218 228 249 273 302 315 312 318 326 330 330 324 320 322 326 331 336 341 344 348 347 344 343 343
166 155 154 152 146 146 149 141 143 148 132 128 133 132 135 135 140 133 143 168 162 154 153 148 159 156 144 154 168 172 177 182 181 174 170 172 176 177 177 178 179 177 174 169 165 164 163 163 163 164 166 169 174 177 182 189 191 196 204 212 218 227 241 261 282 302 308 305 309 310 309 308 304 309 316 321 325 329 333 334 337 336 333 336 339
159 156 154 151 147 142 144 141 142 143 135 136 140 146 149 145 147 141 140 159 159 155 165 159 158 163 150 155 171 171 178 183 183 185 176 170 176 180 180 181 182 184 185 183 180 178 178 178 179 182 182 187 194 195 199 206 209 213 219 225 233 237 246 265 280 287 290 293 296 296 296 300 301 306 311 313 316 320 324 324 324 325 327 336 341
151 152 150 147 142 138 141 141 142 142 139 145 156 166 161 151 148 145 150 159 167 175 188 172 151 161 157 157 163 154 179 189 186 188 184 168 171 179 184 185 184 185 188 189 192 193 194 196 198 202 203 205 211 214 217 220 221 229 234 239 249 252 252 256 265 275 283 287 290 292 294 298 300 302 304 307 310 312 315 315 313 317 326 337 342
150 150 148 148 146 142 143 143 145 142 138 144 156 163 154 145 138 142 159 157 173 189 189 156 134 133 143 153 161 151 168 188 188 191 193 176 169 175 184 188 183 184 191 194 197 201 201 204 208 212 216 217 221 225 228 231 234 240 246 252 257 259 261 264 269 276 283 287 288 291 292 292 294 294 296 301 305 305 305 305 307 314 323 332 337
150 150 150 151 152 148 148 148 145 140 138 143 147 142 129 128 126 140 157 145 150 157 136 150 139 120 131 136 148 155 152 168 184 191 193 187 182 175 176 182 183 183 194 201 205 208 208 209 215 219 223 224 226 232 234 238 242 247 254 260 262 263 266 270 273 276 280 285 286 287 288 287 288 288 290 294 294 296 297 298 301 306 314 321 320
153 153 154 153 154 151 150 144 138 142 146 146 141 129 114 115 128 139 147 143 145 145 139 152 153 139 138 127 121 140 146 155 181 189 190 194 193 182 174 174 181 187 195 209 214 214 213 212 219 226 230 231 232 236 238 243 248 254 261 264 265 265 267 270 271 275 276 278 280 281 283 282 283 283 284 286 284 286 290 292 296 297 300 301 291
157 158 159 156 159 155 153 147 142 150 148 148 145 134 124 121 138 140 140 156 166 178 181 180 185 169 144 133 123 122 141 149 160 177 184 194 197 189 185 184 182 188 202 220 215 212 215 214 221 229 233 236 239 244 246 249 252 257 263 266 268 264 263 270 273 276 278 276 275 275 277 276 276 277 276 277 277 278 281 285 290 289 289 283 266
161 161 162 162 166 159 156 155 151 153 146 151 155 146 139 133 147 144 134 141 126 172 184 169 158 155 137 132 138 131 141 150 148 165 180 190 197 190 190 198 195 191 213 233 221 211 213 217 226 229 230 232 241 252 254 257 257 258 262 264 268 264 260 268 272 273 273 273 273 272 274 273 272 273 273 274 273 273 274 277 280 280 283 273 250
166 162 160 163 169 166 162 155 149 154 153 157 156 150 145 142 155 152 135 127 105 137 154 122 118 127 122 126 145 150 147 158 168 179 188 192 191 188 194 205 201 201 215 226 225 220 209 218 240 230 222 227 248 265 264 267 263 261 262 262 266 264 260 262 264 266 267 269 273 274 274 270 267 267 268 271 270 270 270 272 273 272 275 264 243
172 166 162 164 169 171 165 152 147 152 151 155 155 150 145 146 154 148 138 134 123 138 140 130 129 122 125 138 157 175 163 169 183 185 196 199 189 190 200 202 200 208 217 215 221 224 217 229 250 228 221 231 259 276 271 276 279 270 265 262 266 268 266 263 260 261 264 269 272 273 274 270 267 264 264 267 265 267 266 266 268 265 263 251 238
176 172 165 162 167 173 168 153 148 149 143 149 155 152 147 146 148 144 145 132 120 153 156 146 145 147 154 156 157 173 177 185 193 195 196 194 189 195 201 197 196 202 207 209 216 222 230 239 236 224 226 239 265 276 274 283 295 287 273 270 273 275 275 271 267 264 263 268 272 271 269 267 265 263 262 263 261 263 263 262 262 259 255 243 237
177 176 168 162 163 170 171 159 157 157 148 148 150 152 150 149 149 147 151 140 114 150 163 158 168 167 163 168 163 159 202 219 201 204 195 190 195 186 188 193 192 192 196 203 210 220 232 231 228 233 235 244 263 268 268 277 293 293 287 293 294 287 281 276 275 273 271 273 277 276 270 265 263 262 262 261 259 260 260 259 258 256 251 242 240
175 175 172 171 169 174 181 173 169 169 156 152 154 155 154 149 148 148 152 164 157 160 171 167 166 165 147 176 183 122 108 248 213 209 205 203 204 199 194 189 184 187 197 211 216 213 216 218 225 241 247 254 260 260 260 265 279 283 283 297 303 295 282 276 275 276 279 281 281 281 277 273 269 264 262 261 260 260 260 260 260 257 251 245 245
178 176 177 180 182 189 192 186 183 174 159 153 154 154 154 158 163 163 161 170 173 170 186 186 171 177 168 144 127 104 214 223 195 220 236 230 214 210 207 191 190 200 203 214 216 200 206 222 230 240 247 251 251 253 260 263 267 271 278 293 299 295 286 280 279 279 282 284 285 284 280 278 275 269 265 263 263 264 263 262 260 258 253 248 248
182 179 182 189 192 196 193 192 193 179 171 163 158 158 164 173 178 176 171 163 170 173 177 179 174 190 188 154 92 115 171 158 132 241 265 257 254 230 211 197 203 217 212 212 212 202 214 233 233 239 244 240 237 242 254 263 265 265 273 288 295 295 290 282 281 282 283 284 283 282 280 279 277 274 271 268 267 266 264 261 258 256 253 250 250
187 184 186 194 197 200 195 190 194 184 179 178 175 170 173 185 182 179 181 162 171 174 140 153 158 168 186 204 243 134 136 146 168 186 262 264 283 228 204 204 211 218 218 218 217 212 224 233 230 238 245 244 245 243 245 256 267 269 270 280 293 299 293 282 278 279 279 281 280 280 279 278 277 277 275 272 270 268 265 262 260 258 254 252 251
189 191 191 199 200 200 197 189 193 195 190 190 188 176 171 183 181 177 182 173 179 181 155 161 170 188 199 211 229 180 166 192 188 177 157 236 299 247 215 224 224 222 224 228 229 222 223 227 227 236 244 246 250 251 252 252 262 276 276 275 284 294 295 287 283 282 279 280 279 279 279 278 278 278 277 274 272 269 265 263 261 260 257 254 252
190 195 193 200 203 199 198 194 193 198 202 194 180 182 180 177 185 187 183 183 183 178 179 185 189 263 232 196 189 184 189 201 203 202 176 157 272 282 274 246 214 218 226 233 240 229 222 225 225 232 244 250 253 255 256 254 260 274 279 276 279 287 291 289 289 290 286 282 281 280 280 279 278 278 278 277 274 272 268 266 265 263 262 259 257
190 197 194 197 204 203 202 199 194 191 198 197 188 198 194 180 194 196 176 174 176 179 198 198 215 314 225 204 204 201 200 207 217 217 213 232 251 275 313 329 181 204 219 221 228 212 210 219 221 230 248 255 256 256 256 257 261 270 277 278 280 286 291 291 292 294 292 289 285 283 283 281 280 278 279 279 278 277 274 271 269 267 266 264 263
188 196 199 198 204 207 207 206 199 189 192 205 210 208 195 188 201 189 179 186 183 192 202 201 231 211 183 221 200 192 207 213 216 214 206 227 266 268 321 343 309 227 209 195 197 194 206 221 226 234 247 251 252 256 258 259 259 269 279 281 284 290 293 294 295 295 295 293 290 287 286 285 284 282 281 280 280 279 278 276 274 271 269 268 267
188 194 201 202 202 205 209 209 203 194 194 205 203 192 197 203 203 186 189 202 198 198 198 198 218 206 206 238 206 191 208 209 217 235 222 223 253 262 315 346 339 330 273 211 216 235 231 238 243 244 246 247 251 257 259 259 260 269 279 286 290 292 295 296 296 296 295 294 292 290 289 288 287 286 284 284 282 281 280 279 278 276 273 271 271
192 195 200 204 204 205 207 207 206 202 200 207 196 185 201 210 197 193 196 201 202 203 199 197 207 212 224 240 230 228 237 233 231 234 226 223 237 260 309 346 349 352 343 293 252 242 235 243 247 247 244 242 247 257 261 262 267 275 280 287 291 291 293 295 294 294 294 293 293 292 291 291 290 289 287 286 285 284 283 281 280 279 277 276 275
196 198 200 204 207 208 208 205 206 208 204 206 200 194 205 202 187 194 202 202 204 204 203 201 202 217 231 238 248 264 264 247 246 245 228 219 224 237 266 350 353 347 344 338 322 277 262 281 267 251 244 240 241 250 259 265 272 280 283 285 288 287 288 290 291 293 293 294 295 295 295 295 294 293 292 290 288 287 286 284 283 281 280 279 278
199 203 203 205 207 210 214 210 205 207 207 205 202 200 207 205 191 190 196 202 207 209 210 208 206 219 235 243 257 270 272 278 307 297 219 188 177 168 145 73 8 342 339 338 331 309 300 320 314 273 252 243 237 242 253 265 276 284 285 284 287 288 287 288 292 295 296 297 298 298 298 299 299 298 296 294 292 291 289 287 286 284 282 281 279
205 208 207 207 209 211 216 218 210 206 208 209 207 204 206 211 207 201 199 199 204 215 219 214 214 221 234 243 245 250 261 275 308 350 66 115 119 111 94 97 116 337 335 330 322 312 315 330 345 336 290 251 239 245 256 271 285 288 287 286 289 294 295 295 297 298 299 300 300 301 302 302 302 302 301 299 297 295 294 292 290 288 285 283 281
210 212 210 209 212 213 215 219 217 211 211 212 212 210 208 212 214 211 211 207 204 217 226 222 220 220 227 237 236 241 253 261 263 270 311 329 329 304 261 143 150 174 199 321 307 278 306 328 340 353 344 279 245 255 268 284 297 296 293 293 294 298 302 304 304 304 303 303 303 303 304 304 305 305 304 303 301 299 298 296 295 293 290 288 285
213 213 212 211 213 216 216 218 218 215 214 213 214 213 209 211 215 217 218 215 208 214 224 228 227 222 229 239 240 240 242 245 252 253 263 278 277 268 254 238 246 231 204 225 280 269 290 321 321 325 343 334 284 279 285 293 300 299 297 297 295 296 300 302 302 301 300 300 299 300 301 302 303 303 303 302 301 301 300 300 298 297 295 293 290
214 215 214 214 215 216 216 217 218 217 216 215 216 214 209 208 213 217 220 220 215 215 220 228 231 228 231 236 240 241 235 226 236 244 256 267 259 253 253 240 243 251 236 226 245 272 280 302 312 315 324 324 316 304 295 294 297 298 298 297 296 296 296 295 295 296 296 297 299 301 302 303 304 303 302 301 301 301 301 301 301 300 298 297 295
212 215 215 215 215 215 216 217 217 217 216 215 216 216 211 209 211 214 217 220 222 221 220 224 230 232 232 231 235 241 238 233 235 239 249 263 255 246 252 255 244 240 244 238 239 267 280 291 300 311 319 318 315 311 304 301 301 301 303 303 302 302 299 297 298 298 298 300 302 304 304 306 307 307 306 305 305 306 306 306 306 305 304 302 300
210 212 214 215 215 215 216 216 217 218 217 216 216 216 213 211 213 214 214 217 225 228 226 226 227 229 232 235 238 238 239 242 242 241 245 252 254 253 254 256 252 243 241 242 242 261 281 291 293 300 309 311 309 309 307 305 302 302 303 304 305 305 303 301 301 301 301 301 302 303 305 308 309 309 310 310 310 310 310 310 310 310 310 308 306
212 212 214 217 217 215 214 215 216 217 218 217 216 216 216 215 214 215 213 213 221 228 229 231 230 226 227 236 244 241 238 242 244 242 245 245 246 256 260 256 253 252 249 247 246 252 272 286 290 293 299 301 300 304 306 304 304 306 305 305 306 306 304 302 301 301 303 303 303 305 308 311 312 311 312 313 314 314 314 314 314 314 314 312 311
213 214 215 217 219 217 214 214 214 215 217 218 217 217 218 218 217 216 213 211 215 222 226 231 234 231 228 232 239 239 236 240 244 244 245 246 246 254 264 263 256 257 257 253 251 252 264 280 289 291 294 297 297 300 304 303 304 306 305 305 306 304 304 304 302 302 305 306 305 305 306 310 312 313 314 317 319 321 322 323 323 322 321 321 319
213 214 215 216 219 218 214 212 213 214 215 218 219 219 220 221 220 219 216 213 213 217 222 228 232 234 234 234 234 235 236 240 244 245 245 247 247 250 259 266 264 265 264 257 256 261 267 276 285 288 292 294 294 297 301 302 302 302 301 301 302 302 303 304 302 302 305 305 305 305 307 310 312 314 318 321 323 323 324 326 327 327 327 327 326
212 213 214 215 217 218 215 212 212 213 215 217 218 218 220 221 222 222 219 217 216 217 221 226 229 233 236 238 237 236 237 240 242 244 245 246 248 249 254 260 264 266 269 267 268 272 273 274 281 287 290 291 292 296 299 301 301 302 302 302 303 303 304 304 303 304 306 308 309 311 312 314 316 318 321 321 321 322 326 330 332 332 333 333 332
212 212 213 214 214 216 216 214 212 213 214 216 217 218 218 219 221 222 221 220 219 219 222 225 228 231 234 238 241 239 238 240 242 243 244 245 246 249 252 254 257 260 264 268 270 272 273 275 280 284 287 289 291 294 299 303 304 303 302 302 303 305 305 306 308 311 315 319 320 318 318 319 319 319 320 321 324 330 335 339 341 342 341 339 337
212 212 213 213 213 214 215 214 213 213 213 215 217 218 218 218 220 221 222 222 221 220 222 225 228 231 233 236 238 240 239 241 243 244 245 246 246 248 250 252 254 257 260 263 265 266 270 273 277 280 284 288 289 291 297 303 302 300 298 297 299 308 315 316 319 323 326 327 324 321 322 323 321 322 327 333 338 343 345 347 347 347 346 344 343
211 211 212 213 213 213 215 214 214 213 213 214 216 217 218 218 219 220 221 222 223 223 223 225 228 230 233 235 236 238 240 241 243 245 245 246 246 247 248 249 252 254 257 260 261 262 266 269 272 276 281 285 286 289 294 298 296 297 303 301 301 314 328 325 320 321 325 326 325 324 325 325 326 331 338 342 348 350 349 349 350 351 351 349 347
211 211 212 213 212 212 213 214 214 213 213 214 215 217 218 218 217 219 221 222 223 224 224 226 228 231 233 234 236 239 240 241 242 244 245 245 246 246 246 247 249 250 253 256 258 260 262 263 267 273 278 282 285 287 292 294 293 300 313 316 312 316 322 320 317 318 323 327 326 324 326 329 332 336 341 344 349 350 348 350 354 353 349 345 344
209 210 210 211 211 211 211 212 212 212 213 214 216 218 219 219 217 217 220 221 222 223 224 225 227 230 232 234 235 238 240 242 243 243 244 243 243 243 244 245 246 248 251 253 253 255 256 258 264 270 276 280 283 286 287 288 292 300 307 310 311 313 316 317 316 319 325 328 325 321 326 336 338 335 339 344 346 348 350 353 351 345 342 344 347
207 208 208 209 210 210 210 211 211 211 213 214 215 218 220 220 219 217 218 221 222 222 222 224 226 228 231 233 235 236 237 239 242 244 245 244 244 245 245 246 246 246 247 249 250 251 253 256 262 267 270 274 280 282 281 283 289 295 300 304 307 308 312 313 310 316 324 328 323 319 325 340 341 334 338 344 347 353 354 347 341 339 342 348 351
205 205 206 208 209 209 209 210 211 212 213 214 215 218 220 221 221 220 219 220 222 222 222 223 225 228 230 232 235 236 236 237 240 244 247 248 248 247 247 247 246 245 246 249 251 253 255 258 263 267 269 271 276 279 280 283 288 293 296 299 301 303 306 305 301 311 321 326 323 316 320 337 344 338 341 348 351 348 342 340 342 344 345 346 346
203 204 205 206 207 207 207 208 210 212 214 215 216 218 220 221 222 222 221 221 222 223 223 223 225 227 229 231 233 235 237 238 238 241 245 249 250 249 247 247 246 246 247 250 254 259 262 264 266 269 272 271 273 279 285 286 286 288 289 292 298 301 300 298 300 308 317 325 325 315 315 335 352 347 343 346 342 337 338 346 354 350 344 345 348
202 202 204 205 206 207 206 207 209 211 214 215 216 218 220 222 223 224 224 223 223 224 225 226 226 226 229 231 233 234 236 238 238 238 241 245 247 248 247 246 246 247 248 250 255 259 262 264 264 267 273 274 274 281 289 287 281 282 283 287 294 296 292 294 301 307 317 328 330 318 317 338 357 351 342 338 335 339 349 359 357 349 347 350 354
202 202 203 203 205 207 206 206 207 209 213 215 216 217 219 222 224 224 224 224 224 225 226 228 229 229 230 231 234 236 238 239 239 239 241 244 247 248 247 247 248 248 249 251 254 258 262 265 264 266 272 276 276 279 284 283 281 283 283 284 285 285 287 296 302 308 318 328 326 323 325 336 347 349 345 339 338 347 6 6 353 350 352 354 356
203 203 203 203 205 206 206 206 206 208 212 214 216 217 219 222 223 224 223 224 224 225 226 228 230 232 233 233 234 237 240 242 243 242 242 245 249 250 249 248 248 249 250 253 257 262 265 264 263 265 269 274 278 279 281 282 282 283 282 279 278 281 289 297 301 306 315 318 317 327 334 336 342 346 346 345 347 356 10 2 352 353 357 359 356
204 203 203 204 204 205 206 206 206 208 211 214 216 217 218 220 222 222 222 222 223 226 227 228 229 231 234 236 236 237 239 242 244 244 242 242 244 247 248 247 247 247 251 257 261 262 262 263 266 269 271 274 276 274 274 277 278 280 277 273 278 284 288 291 292 298 307 311 319 338 343 339 341 344 345 350 359 8 3 353 351 357 3 359 354
204 204 204 204 205 206 207 207 207 208 209 212 215 216 218 219 220 221 221 220 222 225 226 227 228 229 232 235 236 237 239 241 243 243 242 240 240 242 244 243 243 245 250 255 256 255 259 268 274 275 273 272 270 268 269 273 276 279 274 271 279 284 280 278 282 292 303 309 327 342 342 340 346 352 351 350 358 13 356 349 353 3 5 357 352
206 204 204 204 205 207 209 210 211 211 211 212 214 216 218 218 219 220 220 218 220 223 226 227 227 228 229 231 232 232 236 239 240 240 239 238 237 240 242 241 241 244 249 252 251 253 260 266 270 272 273 271 267 265 266 267 270 274 272 273 280 278 273 274 279 289 306 315 329 339 342 345 355 6 6 359 353 341 343 350 360 9 6 356 350